Regional Weather Roundup
Issued by NWS

Home | Current Version | Previous Version | Text Only | Print | Product List | Glossary Off
Versions: 1 2 3 4 5 6 7 8 9 10 11 12 13 14 15 16 17 18 19 20 21 22 23 24 25 26 27 28 29 30 31 32 33 34 35 36 37 38 39 40 41 42 43 44 45 46 47 48 49 50

275
ASUS45 KBOU 251107
RWRCO

WEATHER ROUNDUP FOR COLORADO
NATIONAL WEATHER SERVICE DENVER/BOULDER CO
500 AM MDT THU MAY 25 2017

NOTE: "FAIR" INDICATES FEW OR NO CLOUDS BELOW 12000 FEET WITH NO
SIGNIFICANT WEATHER AND/OR OBSTRUCTIONS TO VISIBILITY.

COZ001>005-013-030-031-251200-
...NORTHWEST COLORADO...

CITY           SKY/WX    TMP DP  RH WIND       PRES   REMARKS
CRAIG          CLOUDY    60  35  39 SW16G29   29.64F
HAYDEN         MOCLDY    52  37  58 E7        29.69R
MEEKER         LGT RAIN  60  37  42 SW18G41   29.69R
RABBIT EARS PA PTSUNNY   37  32  81 W10G21    29.88S
STEAMBOAT SPGS CLOUDY    48  40  73 NW5       29.72R
WALDEN           N/A     41  36  81 SE8       29.76F
$$

COZ006>008-011-251200-
...WEST CENTRAL VALLEYS...

CITY           SKY/WX    TMP DP  RH WIND       PRES   REMARKS
GRAND JUNCTION FAIR      61  34  36 NE5       29.60S
MONTROSE       FAIR      60  27  28 S8        29.70S
EAGLE          FAIR      53  38  56 CALM      29.73S
RIFLE          FAIR      55  36  48 SE6       29.65R
DELTA          FAIR      62  31  30 E5        29.66R
NUCLA          FAIR      64  23  20 SW6       29.74S
$$

COZ017>023-064>068-251200-
...SOUTHWEST COLORADO...

CITY           SKY/WX    TMP DP  RH WIND       PRES   REMARKS
DURANGO        FAIR      46  31  55 NE3       29.83R
CORTEZ         FAIR      63  23  21 SW9       29.76S
PAGOSA SPRINGS CLOUDY    51  24  34 CALM      29.89S
TELLURIDE      MOCLDY    57  21  24 SW9G17    29.95S
WOLF CREEK PAS MOCLDY    36  21  55 SW13G22   30.14S
$$

COZ009-010-012-014-032>034-037-058>063-251200-
...CENTRAL COLORADO...

CITY           SKY/WX    TMP DP  RH WIND       PRES   REMARKS
ASPEN          CLOUDY    51  34  52 VRB6      29.78R
BUENA VISTA    MOCLDY    50  29  44 W3        29.82R
COPPER MTN     MOCLDY    41  25  52 W24G37    30.01F
BERTHOUD PASS  FAIR      34  23  64 W49G59    29.95F WCI  17
COTTONWOOD PAS CLOUDY    54  19  26 W21G38    29.91S
GUNNISON       FAIR      46  34  62 CALM      29.82S
KREMMLING      FAIR      54  43  66 N5        29.76S
LEADVILLE      FAIR      44  25  47 NE5       29.89S
MONARCH PASS   CLOUDY    39  21  48 W43G51    30.13S
SALIDA         FAIR      62  26  25 NW15G24   29.87F
SUNLIGHT       FAIR      39  27  60 SW14G26   29.97S
WILKERSON PASS FAIR      41  23  48 SW12G20   29.99S
$$

COZ069>075-251200-
...SAN LUIS VALLEY/SANGRE DE CRISTO MOUNTAINS...

CITY           SKY/WX    TMP DP  RH WIND       PRES   REMARKS
ALAMOSA        FAIR      46  29  51 W5        29.83S
DEL NORTE      FAIR      43  22  44 W8        29.86R
LA VETA PASS   FAIR      45  21  39 S21G36    30.08R
SAGUACHE       FAIR      39  27  60 SW6       29.85R
$$

COZ035-036-038>040-251200-
...NORTHERN COLORADO FRONT RANGE...

CITY           SKY/WX    TMP DP  RH WIND       PRES   REMARKS
DENVER INTL AP MOCLDY    66  35  31 W14G26    29.60R
DMNS CITY PARK   N/A     62  33  33 E10       29.59F
AURORA         PTCLDY    59  34  39 SW6       29.63R
FRONT RANGE AP FAIR      55  37  50 W9        29.62R
ERIE MUNI ARPT FAIR      63  37  38 S7        29.57F
BOULDER MUN AP FAIR      63  37  39 S3        29.56F
CENTENNIAL     FAIR      57  36  45 NW9       29.64R
BROOMFIELD     FAIR      63  36  36 W5        29.62F
FORT COLLINS   FAIR      62  41  46 S6        29.54F
LONGMONT       FAIR      65  39  38 CALM      29.56F
$$

COZ041-046-047-076>085-087-088-251200-
...PIKES PEAK/PALMER DIVIDE AND SOUTHERN FOOTHILLS...

CITY           SKY/WX    TMP DP  RH WIND       PRES   REMARKS
COLO. SPRINGS  FAIR      55  35  47 N8        29.67R
A. F. ACADEMY  FAIR      49  34  55 NW3       29.68R
SCHRIEVER AFB  FAIR      55  34  44 NW5       29.67R
CHEYENNE MTN   FAIR      63  24  23 SW5       29.66R
ELLICOTT       FAIR     N/A N/A N/A NE3       29.65R
FALCON         FAIR      52  31  45 W3        29.72R
FORT CARSON    FAIR      57  38  49 NW7       29.64R
LIMON            N/A     46  45  96 CALM      29.61S
MONUMENT HILL  FAIR      54  32  43 SW10      29.73R
CANON CITY     NOT AVBL
WALSENBURG     FAIR      57  32  38 W12       29.69S
TRINIDAD       FAIR      56  30  37 SW14      29.69R
$$

COZ042>045-048>051-090-091-251200-
...NORTHEAST COLORADO...

CITY           SKY/WX    TMP DP  RH WIND       PRES   REMARKS
GREELEY ARPT   FAIR      60  43  53 N5        29.54F
AKRON          FAIR      60  39  45 W15       29.53R
BURLINGTON     FAIR      50  45  83 SW12      29.53F
WRAY           FAIR      55  45  67 SW14G22   29.47F
YUMA           FAIR      57  43  58 W10       29.49R
STERLING       FAIR      52  46  82 CALM      29.49S
HOLYOKE        NOT AVBL
FORT MORGAN    FAIR      49  42  76 W9        29.55R
$$

COZ086-089-092>099-251200-
...SOUTHEAST COLORADO...

CITY           SKY/WX    TMP DP  RH WIND       PRES   REMARKS
PUEBLO         FAIR      48  42  80 N6        29.58R
LA JUNTA       FAIR      53  46  77 CALM      29.55S
LAMAR          FAIR      45  43  93 CALM      29.51F
SPRINGFIELD      N/A     49  40  71 W3        29.57S
$$




USA.gov is the U.S. government's official web portal to all federal, state and local government web resources and services.